Location: Alexandria
(38.8050°N, 77.0470°W)
Time: 11:32:58
(UTC-04:00)

Vanguard 3 - Visible Passes

Search period start: 22 June 2018 00:00
Search period end: 02 July 2018 00:00
Orbit: 508 x 3264 km, 33.3° (Epoch: 21 June)

Date Brightness Start Highest point End Pass type
(mag) Time Alt. Az. Time Alt. Az. Time Alt. Az.
22 Jun 9.1 02:27:39 15° ESE 02:27:39 15° ESE 02:29:47 10° ESE visible
22 Jun 8.0 04:32:13 15° WSW 04:36:43 52° SSE 04:45:54 10° E visible
23 Jun 7.8 03:22:29 33° S 03:23:13 35° SSE 03:29:43 10° E visible
24 Jun 9.2 02:12:45 13° ESE 02:12:45 13° ESE 02:13:48 10° ESE visible
24 Jun 7.8 04:17:20 20° WSW 04:20:54 52° S 04:29:11 10° E visible
25 Jun 7.7 03:07:38 36° SSE 03:07:38 36° SSE 03:13:21 10° E visible
26 Jun 7.5 04:02:31 26° SW 04:05:09 51° S 04:12:34 10° E visible
27 Jun 7.8 02:52:52 33° SE 02:52:52 33° SE 02:57:05 10° E visible
27 Jun 7.9 04:58:03 10° WSW 05:03:07 52° S 05:11:47 10° ESE visible
28 Jun 7.3 03:47:49 34° SW 03:49:28 48° S 03:56:04 10° ESE visible
29 Jun 8.3 02:38:14 24° ESE 02:38:14 24° ESE 02:40:57 10° E visible
29 Jun 7.7 04:42:49 10° WSW 04:47:23 46° S 04:55:01 10° ESE visible
30 Jun 7.0 03:33:17 43° SSW 03:33:50 45° S 03:39:41 10° ESE visible
01 Jul 8.9 02:23:49 15° ESE 02:23:49 15° ESE 02:24:55 10° ESE visible
01 Jul 7.6 04:28:25 16° WSW 04:31:43 39° S 04:38:18 10° ESE visible
